ALTAIR (RS65S)

Last updated on Mon Sep 15 2025 00:03:09 GMT+0000 (Coordinated Universal Time)

1 61779U 24199AW 25257.22922358 .00006605 00000+0 22692-3 0 9999 2 61779 97.3403 123.9723 0014042 207.6971 152.3524 15.30357420 94812
UTC large
Height (km)
Speed (km/s)
/
Latitude / Longitude
Inclination (degrees)
Orbital Period (minutes)
Azimuth
Elevation
Range (km)
Doppler Factor

Next 0 passes for location: London (51.5072 / 0.1276)

Sorry there are no passes over London.